Tracking 20041 objects as of 22-Nov-2019
Live streaming from Space Station
objects crossing your sky now

TOPEX/POSEIDON

Track TOPEX/POSEIDON now!
10-day predictions
TOPEX/POSEIDON is classified as:


NORAD ID: 22076
Int'l Code: 1992-052A
Perigee: 1,338.3 km
Apogee: 1,350.7 km
Inclination: 66.0 °
Period: 112.4 minutes
Semi major axis: 7715 km
RCS: 8.6832 m2 (large)
Launch date: August 10, 1992
Source: United States (US)
Launch site: FRENCH GUIANA (FRGUI)
aabbcc
Your satellite tracking list
Your tracking list is empty




NASA's NSSDC Master Catalog

Two Line Element Set (TLE):
1 22076U 92052A   19325.83128411 -.00000066 +00000-0 -19696-4 0  9992
2 22076 066.0412 076.9107 0008073 268.8948 268.9719 12.81024031276202
Source of the keplerian elements: AFSPC